DW6386 Weather Reports


Display with metric or nautical units.
time (UTC)temp
F
wind
direction
speed
MPH
gust
MPH
rain 1hr
in
rain 24hr
in
rain mn
in
humidity
%
barometer
mb
20260506061543 68 68 0.0 4.0 0.00 0.00 0.00 64 1008.5
20260506044608 67 42 2.0 5.0 0.00 0.00 0.00 62 1009.6
20260506043032 68 51 1.0 6.0 0.00 0.00 0.00 62 1009.4
20260506041528 68 32 2.0 7.0 0.00 0.00 0.00 61 1009.4
20260506040028 68 116 1.0 4.0 0.00 0.00 0.00 60 1009.3
20260506034546 68 72 1.0 7.0 0.00 0.00 0.00 59 1009.6
20260506033023 67 63 0.0 0.0 0.00 0.00 0.00 59 1009.4
20260506031523 68 64 2.0 5.0 0.00 0.00 0.00 58 1009.7
20260506030024 68 79 0.0 4.0 0.00 0.00 0.00 58 1010.0
20260506024522 68 30 0.0 6.0 0.00 0.00 0.00 57 1010.0
20260506023123 68 61 2.0 6.0 0.00 0.00 0.00 57 1009.7
20260506021520 68 68 1.0 4.0 0.00 0.00 0.00 57 1009.7
20260506020019 68 77 0.0 1.0 0.00 0.00 0.00 57 1009.4
20260506014526 68 72 0.0 2.0 0.00 0.00 0.00 56 1009.6
20260506013018 68 87 1.0 4.0 0.00 0.00 0.00 55 1009.5
20260506011518 68 61 1.0 4.0 0.00 0.00 0.00 56 1009.1
20260506010017 67 93 0.0 2.0 0.00 0.00 0.00 56 1009.0
20260506004531 68 70 0.0 1.0 0.00 0.00 0.00 54 1008.9
20260506003029 69 25 0.0 5.0 0.00 0.00 0.00 52 1008.8
20260506001515 70 72 0.0 4.0 0.00 0.00 0.00 50 1008.9
20260506000015 71 53 1.0 6.0 0.00 0.00 0.00 48 1009.4
20260505234525 72 56 1.0 8.0 0.00 0.00 0.00 47 1009.4
20260505233013 73 67 6.0 13.0 0.00 0.00 0.00 45 1009.4
20260505231516 73 41 4.0 16.0 0.00 0.00 0.00 46 1009.3
20260505230013 74 73 3.0 10.0 0.00 0.00 0.00 45 1009.1
20260505224512 74 30 6.0 17.0 0.00 0.00 0.00 43 1008.9
20260505223009 75 28 7.0 14.0 0.00 0.00 0.00 45 1008.9
20260505221512 75 51 3.0 11.0 0.00 0.00 0.00 47 1008.8
20260505220016 75 20 1.0 5.0 0.00 0.00 0.00 52 1009.0
20260505214504 74 26 2.0 9.0 0.00 0.00 0.00 50 1009.2
20260505213002 75 59 3.0 10.0 0.00 0.00 0.00 48 1009.3
20260505211502 75 45 5.0 14.0 0.00 0.00 0.00 49 1009.5
20260505210100 76 44 3.0 10.0 0.00 0.00 0.00 49 1009.4
20260505204600 76 25 4.0 9.0 0.00 0.00 0.00 47 1009.5
20260505203055 76 27 4.0 9.0 0.00 0.00 0.00 47 1009.9
20260505201551 77 53 4.0 9.0 0.00 0.00 0.00 45 1010.2
20260505200048 77 34 1.0 9.0 0.00 0.00 0.00 50 1010.4
20260505194546 76 15 2.0 8.0 0.00 0.00 0.00 53 1010.6
20260505193045 75 80 4.0 11.0 0.00 0.00 0.00 52 1010.8
20260505191550 74 234 1.0 4.0 0.00 0.00 0.00 57 1010.9
20260505190037 73 272 0.0 3.0 0.00 0.00 0.00 58 1011.3
20260505184532 72 11 2.0 10.0 0.00 0.00 0.00 56 1011.5
20260505183030 73 41 1.0 9.0 0.00 0.00 0.00 55 1011.8
20260505181528 72 277 3.0 10.0 0.00 0.00 0.00 56 1012.0
20260505180041 73 32 3.0 8.0 0.00 0.00 0.00 56 1012.3
20260505174532 72 343 3.0 9.0 0.00 0.00 0.00 59 1012.6
20260505173023 71 20 3.0 9.0 0.00 0.00 0.00 61 1012.8
20260505171529 72 55 4.0 7.0 0.00 0.00 0.00 60 1013.1
20260505170027 71 276 1.0 9.0 0.00 0.00 0.00 63 1013.5
20260505164519 71 225 2.0 6.0 0.00 0.00 0.00 63 1013.5
20260505163017 69 60 1.0 4.0 0.00 0.00 0.00 63 1013.6
20260505161514 69 276 2.0 4.0 0.00 0.00 0.00 62 1013.7
20260505153010 68 46 1.0 5.0 0.00 0.00 0.00 63 1013.6
20260505151507 67 352 1.0 6.0 0.00 0.00 0.00 65 1013.7
20260505124538 56 194 0.0 0.0 0.00 0.00 0.00 94 1013.6
20260505123054 55 207 0.0 1.0 0.00 0.00 0.00 95 1013.5
20260505121535 54 106 0.0 0.0 0.00 0.00 0.00 97 1013.5
20260505120033 51 105 0.0 0.0 0.00 0.00 0.00 97 1013.3
20260505114531 49 119 0.0 0.0 0.00 0.00 0.00 97 1013.2
20260505113035 48 120 0.0 0.0 0.00 0.00 0.00 97 1013.0
20260505111547 47 120 0.0 0.0 0.00 0.00 0.00 96 1012.7
20260505101519 47 120 0.0 0.0 0.00 0.00 0.00 95 1012.5
20260505100022 48 120 0.0 0.0 0.00 0.00 0.00 96 1012.5
20260505094517 48 119 0.0 0.0 0.00 0.00 0.00 95 1012.5
20260505093014 48 119 0.0 0.0 0.00 0.00 0.00 95 1012.3
20260505091511 48 119 0.0 0.0 0.00 0.00 0.00 95 1012.4
20260505090010 49 119 0.0 0.0 0.00 0.00 0.00 95 1012.4
20260505084516 49 119 0.0 0.0 0.00 0.00 0.00 95 1012.2
20260505083013 49 119 0.0 0.0 0.00 0.00 0.00 95 1012.1
20260505081505 49 119 0.0 0.0 0.00 0.00 0.00 94 1012.1
20260505080007 49 119 0.0 0.0 0.00 0.00 0.00 93 1011.9
20260505074600 50 119 0.0 0.0 0.00 0.00 0.00 94 1012.0
20260505073107 50 119 0.0 0.0 0.00 0.00 0.00 94 1011.9
20260505071557 50 119 0.0 0.0 0.00 0.00 0.00 93 1012.1
20260505070055 51 119 0.0 0.0 0.00 0.00 0.00 93 1012.2
20260505064601 51 119 0.0 0.0 0.00 0.00 0.00 91 1012.1